Time,TemperatureF,DewpointF,PressureIn,WindDirection,WindDirectionDegrees,WindSpeedMPH,WindSpeedGustMPH,Humidity,HourlyPrecipIn,Conditions,Clouds,dailyrainin,SoftwareType,DateUTC
2013-07-24 00:08:00,60.7,57.0,29.93,ESE,113,0.0,0.0,87,0.00,,,0.00,weatherlink.com 1.10,2013-07-24 05:08:00,
2013-07-24 00:23:00,60.0,57.0,29.93,ESE,113,0.0,0.0,90,0.00,,,0.00,weatherlink.com 1.10,2013-07-24 05:23:00,
2013-07-24 00:38:00,59.4,57.0,29.93,ESE,113,0.0,0.0,93,0.00,,,0.00,weatherlink.com 1.10,2013-07-24 05:38:00,
2013-07-24 00:53:00,59.6,59.0,29.94,ESE,113,0.0,0.0,96,0.00,,,0.00,weatherlink.com 1.10,2013-07-24 05:53:00,
2013-07-24 01:08:00,58.5,57.0,29.94,ENE,65,0.0,1.0,96,0.00,,,0.00,weatherlink.com 1.10,2013-07-24 06:08:00,
2013-07-24 01:23:00,57.9,57.0,29.94,ENE,65,1.0,1.0,96,0.00,,,0.00,weatherlink.com 1.10,2013-07-24 06:23:00,
2013-07-24 01:38:00,57.6,57.0,29.94,ENE,72,0.0,1.0,97,0.00,,,0.00,weatherlink.com 1.10,2013-07-24 06:38:00,
2013-07-24 01:53:00,57.0,56.0,29.94,ENE,72,0.0,0.0,97,0.00,,,0.00,weatherlink.com 1.10,2013-07-24 06:53:00,
2013-07-24 02:08:00,56.5,56.0,29.94,ENE,72,0.0,0.0,98,0.00,,,0.00,weatherlink.com 1.10,2013-07-24 07:08:00,
2013-07-24 02:23:00,55.9,55.0,29.94,ENE,72,0.0,1.0,98,0.00,,,0.00,weatherlink.com 1.10,2013-07-24 07:23:00,
2013-07-24 02:38:00,56.1,56.0,29.95,ENE,72,0.0,0.0,98,0.00,,,0.00,weatherlink.com 1.10,2013-07-24 07:38:00,
2013-07-24 02:53:00,55.8,56.0,29.96,ENE,72,0.0,0.0,99,0.00,,,0.00,weatherlink.com 1.10,2013-07-24 07:53:00,
2013-07-24 03:08:00,55.4,55.0,29.96,ENE,72,0.0,0.0,98,0.00,,,0.00,weatherlink.com 1.10,2013-07-24 08:08:00,
2013-07-24 03:23:00,55.3,55.0,29.96,ENE,72,0.0,0.0,99,0.00,,,0.00,weatherlink.com 1.10,2013-07-24 08:23:00,
2013-07-24 03:38:00,54.9,55.0,29.95,ENE,61,0.0,2.0,99,0.00,,,0.00,weatherlink.com 1.10,2013-07-24 08:38:00,
2013-07-24 03:53:00,56.0,56.0,29.96,ENE,75,0.0,3.0,99,0.00,,,0.00,weatherlink.com 1.10,2013-07-24 08:53:00,
2013-07-24 04:08:00,55.6,55.0,29.96,East,85,1.0,2.0,98,0.00,,,0.00,weatherlink.com 1.10,2013-07-24 09:08:00,
2013-07-24 04:23:00,56.2,56.0,29.96,East,85,0.0,1.0,98,0.00,,,0.00,weatherlink.com 1.10,2013-07-24 09:23:00,
2013-07-24 04:38:00,55.8,55.0,29.97,ENE,61,0.0,2.0,98,0.00,,,0.00,weatherlink.com 1.10,2013-07-24 09:38:00,
2013-07-24 04:53:00,55.7,56.0,29.97,NE,56,0.0,1.0,99,0.00,,,0.00,weatherlink.com 1.10,2013-07-24 09:53:00,
2013-07-24 05:08:00,55.9,55.0,29.98,ENE,65,0.0,2.0,98,0.00,,,0.00,weatherlink.com 1.10,2013-07-24 10:08:00,
2013-07-24 05:23:00,55.9,56.0,29.98,ENE,63,0.0,1.0,99,0.00,,,0.00,weatherlink.com 1.10,2013-07-24 10:23:00,
2013-07-24 05:38:00,56.0,56.0,29.99,ENE,63,0.0,1.0,99,0.00,,,0.00,weatherlink.com 1.10,2013-07-24 10:38:00,
2013-07-24 05:53:00,55.5,55.0,29.99,ENE,75,0.0,0.0,99,0.00,,,0.00,weatherlink.com 1.10,2013-07-24 10:53:00,
2013-07-24 06:08:00,56.2,56.0,30.00,ENE,75,0.0,0.0,99,0.00,,,0.00,weatherlink.com 1.10,2013-07-24 11:08:00,
2013-07-24 06:23:00,57.7,58.0,30.00,ENE,75,0.0,0.0,99,0.00,,,0.00,weatherlink.com 1.10,2013-07-24 11:23:00,
2013-07-24 06:38:00,59.0,58.0,30.00,ENE,75,0.0,0.0,97,0.00,,,0.00,weatherlink.com 1.10,2013-07-24 11:38:00,
2013-07-24 06:53:00,60.6,59.0,30.00,ENE,75,0.0,0.0,95,0.00,,,0.00,weatherlink.com 1.10,2013-07-24 11:53:00,
2013-07-24 07:08:00,62.0,59.0,30.01,East,82,0.0,1.0,90,0.00,,,0.00,weatherlink.com 1.10,2013-07-24 12:08:00,
2013-07-24 07:24:00,62.4,59.0,30.00,ENE,58,0.0,2.0,89,0.00,,,0.00,weatherlink.com 1.10,2013-07-24 12:24:00,
2013-07-24 07:39:00,63.7,60.0,30.01,ESE,123,1.0,2.0,88,0.00,,,0.00,weatherlink.com 1.10,2013-07-24 12:39:00,
2013-07-24 07:54:00,64.6,60.0,30.01,East,82,2.0,4.0,86,0.00,,,0.00,weatherlink.com 1.10,2013-07-24 12:54:00,
2013-07-24 08:09:00,65.4,59.0,30.01,ESE,115,4.0,6.0,81,0.00,,,0.00,weatherlink.com 1.10,2013-07-24 13:09:00,
2013-07-24 08:24:00,66.0,59.0,30.02,East,98,3.0,7.0,78,0.00,,,0.00,weatherlink.com 1.10,2013-07-24 13:24:00,
2013-07-24 08:39:00,67.2,59.0,30.02,South,169,1.0,6.0,75,0.00,,,0.00,weatherlink.com 1.10,2013-07-24 13:39:00,
2013-07-24 08:54:00,68.6,59.0,30.02,SSW,200,1.0,4.0,71,0.00,,,0.00,weatherlink.com 1.10,2013-07-24 13:54:00,
2013-07-24 09:09:00,69.6,59.0,30.02,SE,130,0.0,3.0,69,0.00,,,0.00,weatherlink.com 1.10,2013-07-24 14:09:00,
2013-07-24 09:24:00,70.7,58.0,30.02,ESE,108,3.0,3.0,64,0.00,,,0.00,weatherlink.com 1.10,2013-07-24 14:24:00,
2013-07-24 09:39:00,69.2,57.0,30.02,NNE,30,2.0,5.0,66,0.00,,,0.00,weatherlink.com 1.10,2013-07-24 14:39:00,
2013-07-24 09:54:00,69.7,58.0,30.02,ESE,113,1.0,4.0,66,0.00,,,0.00,weatherlink.com 1.10,2013-07-24 14:54:00,
2013-07-24 10:09:00,70.2,58.0,30.02,NE,51,2.0,4.0,65,0.00,,,0.00,weatherlink.com 1.10,2013-07-24 15:09:00,
2013-07-24 10:24:00,69.5,57.0,30.02,West,276,0.0,4.0,64,0.00,,,0.00,weatherlink.com 1.10,2013-07-24 15:24:00,
2013-07-24 10:30:00,69.6,57.8,30.02,West,270,2.0,6.0,66,0.00,,SKC,0.00,VWS V14.01,2013-07-24 15:30:00,
2013-07-24 10:39:00,69.9,58.0,30.02,North,8,0.0,5.0,66,0.00,,,0.00,weatherlink.com 1.10,2013-07-24 15:39:00,
2013-07-24 10:54:00,71.4,59.0,30.02,ENE,68,2.0,4.0,64,0.00,,,0.00,weatherlink.com 1.10,2013-07-24 15:54:00,
2013-07-24 11:02:00,71.5,59.1,30.02,SSE,153,2.0,2.0,65,0.00,,SKC,0.00,VWS V14.01,2013-07-24 16:02:00,
2013-07-24 11:07:00,71.2,57.1,30.02,East,101,3.0,4.0,61,0.00,,SKC,0.00,VWS V14.01,2013-07-24 16:07:00,
2013-07-24 11:12:00,70.7,57.5,30.02,East,85,0.0,4.0,63,0.00,,SKC,0.00,VWS V14.01,2013-07-24 16:12:00,
2013-07-24 11:17:00,71.6,59.2,30.02,NNE,16,3.0,4.0,65,0.00,,SKC,0.00,VWS V14.01,2013-07-24 16:17:00,
2013-07-24 11:22:00,71.6,57.9,30.02,NW,316,1.0,4.0,62,0.00,,SKC,0.00,VWS V14.01,2013-07-24 16:22:00,
2013-07-24 11:27:00,71.7,58.5,30.02,NNE,23,1.0,4.0,63,0.00,,SKC,0.00,VWS V14.01,2013-07-24 16:27:00,
2013-07-24 11:32:00,71.2,58.8,30.02,NW,326,0.0,2.0,65,0.00,,SKC,0.00,VWS V14.01,2013-07-24 16:32:00,
2013-07-24 11:37:00,71.5,58.3,30.02,North,354,0.0,2.0,63,0.00,,SKC,0.00,VWS V14.01,2013-07-24 16:37:00,
2013-07-24 11:42:00,72.0,57.8,30.02,NE,46,2.0,2.0,61,0.00,,SKC,0.00,VWS V14.01,2013-07-24 16:42:00,
2013-07-24 11:47:00,72.2,58.5,30.03,North,4,0.0,5.0,62,0.00,,SKC,0.00,VWS V14.01,2013-07-24 16:47:00,
2013-07-24 11:52:00,72.9,57.8,30.03,ENE,64,2.0,6.0,59,0.00,,SKC,0.00,VWS V14.01,2013-07-24 16:52:00,
2013-07-24 11:57:00,73.1,58.9,30.03,NNE,20,2.0,6.0,61,0.00,,SKC,0.00,VWS V14.01,2013-07-24 16:57:00,
2013-07-24 12:03:00,72.8,57.7,30.03,NE,53,3.0,3.0,59,0.00,,SKC,0.00,VWS V14.01,2013-07-24 17:03:00,
2013-07-24 12:08:00,72.3,58.6,30.03,ENE,77,0.0,4.0,62,0.00,,SKC,0.00,VWS V14.01,2013-07-24 17:08:00,
2013-07-24 12:13:00,72.6,59.7,30.02,NNW,336,0.0,4.0,64,0.00,,SKC,0.00,VWS V14.01,2013-07-24 17:13:00,
2013-07-24 12:18:00,73.1,59.3,30.02,South,185,0.0,4.0,62,0.00,,SKC,0.00,VWS V14.01,2013-07-24 17:18:00,
2013-07-24 12:23:00,72.9,58.2,30.02,West,281,1.0,4.0,60,0.00,,SKC,0.00,VWS V14.01,2013-07-24 17:23:00,
2013-07-24 12:28:00,72.2,59.4,30.02,NNE,31,1.0,5.0,64,0.00,,SKC,0.00,VWS V14.01,2013-07-24 17:28:00,
2013-07-24 12:33:00,72.3,59.0,30.02,NE,41,0.0,2.0,63,0.00,,SKC,0.00,VWS V14.01,2013-07-24 17:33:00,
2013-07-24 12:38:00,72.5,57.8,30.02,ENE,75,1.0,4.0,60,0.00,,SKC,0.00,VWS V14.01,2013-07-24 17:38:00,
2013-07-24 12:43:00,72.6,59.7,30.02,NNE,22,1.0,4.0,64,0.00,,SKC,0.00,VWS V14.01,2013-07-24 17:43:00,
2013-07-24 12:48:00,72.8,58.6,30.01,ENE,70,1.0,4.0,61,0.00,,SKC,0.00,VWS V14.01,2013-07-24 17:48:00,
2013-07-24 12:53:00,73.2,59.4,30.01,NNE,20,6.0,6.0,62,0.00,,SKC,0.00,VWS V14.01,2013-07-24 17:53:00,
2013-07-24 12:58:00,73.5,58.3,30.01,NW,316,1.0,6.0,59,0.00,,SKC,0.00,VWS V14.01,2013-07-24 17:58:00,
2013-07-24 13:02:00,74.3,59.1,30.01,ENE,59,4.0,4.0,59,0.00,,SKC,0.00,VWS V14.01,2013-07-24 18:02:00,
2013-07-24 13:03:00,74.2,60.4,30.01,NE,53,2.0,4.0,62,0.00,,SKC,0.00,VWS V14.01,2013-07-24 18:03:00,
2013-07-24 13:21:00,75.0,60.0,30.01,NNW,336,1.0,2.0,59,0.00,,,0.00,weatherlink.com 1.10,2013-07-24 18:21:00,
2013-07-24 13:36:00,73.6,60.0,30.01,NW,318,0.0,2.0,62,0.00,,,0.00,weatherlink.com 1.10,2013-07-24 18:36:00,
2013-07-24 13:51:00,73.9,59.0,30.00,East,87,1.0,4.0,59,0.00,,,0.00,weatherlink.com 1.10,2013-07-24 18:51:00,
2013-07-24 14:06:00,74.7,59.0,30.01,NE,36,1.0,2.0,59,0.00,,,0.00,weatherlink.com 1.10,2013-07-24 19:06:00,
2013-07-24 14:36:00,73.8,58.0,30.00,East,81,1.0,4.0,58,0.00,,,0.00,weatherlink.com 1.10,2013-07-24 19:36:00,
2013-07-24 15:00:00,73.7,58.0,30.00,NE,45,1.0,4.0,58,0.00,,SKC,0.00,VWS V14.01,2013-07-24 20:00:00,
2013-07-24 15:36:00,75.6,58.0,29.99,SSE,150,2.0,5.0,55,0.00,,,0.00,weatherlink.com 1.10,2013-07-24 20:36:00,
2013-07-24 15:47:00,75.0,57.2,29.99,ENE,77,0.0,1.0,54,0.00,,SKC,0.00,VWS V14.01,2013-07-24 20:47:00,
2013-07-24 15:52:00,74.6,58.4,29.99,East,79,0.0,1.0,57,0.00,,SKC,0.00,VWS V14.01,2013-07-24 20:52:00,
2013-07-24 15:57:00,74.5,58.8,29.99,NNE,20,2.0,3.0,58,0.00,,SKC,0.00,VWS V14.01,2013-07-24 20:57:00,
2013-07-24 16:02:00,74.6,57.9,29.99,ESE,116,4.0,4.0,56,0.00,,SKC,0.00,VWS V14.01,2013-07-24 21:02:00,
2013-07-24 16:07:00,74.8,57.1,29.99,ESE,110,1.0,4.0,54,0.00,,SKC,0.00,VWS V14.01,2013-07-24 21:07:00,
2013-07-24 16:12:00,75.0,57.2,29.99,ESE,116,2.0,5.0,54,0.00,,SKC,0.00,VWS V14.01,2013-07-24 21:12:00,
2013-07-24 16:17:00,75.2,57.9,29.99,SSW,207,1.0,5.0,55,0.00,,SKC,0.00,VWS V14.01,2013-07-24 21:17:00,
2013-07-24 16:22:00,75.9,58.1,29.98,WSW,257,1.0,5.0,54,0.00,,SKC,0.00,VWS V14.01,2013-07-24 21:22:00,
2013-07-24 16:27:00,76.3,57.9,29.98,ENE,58,3.0,5.0,53,0.00,,SKC,0.00,VWS V14.01,2013-07-24 21:27:00,
2013-07-24 16:32:00,75.9,58.6,29.98,SSW,207,1.0,3.0,55,0.00,,SKC,0.00,VWS V14.01,2013-07-24 21:32:00,
2013-07-24 16:37:00,76.7,58.3,29.98,ESE,120,2.0,4.0,53,0.00,,SKC,0.00,VWS V14.01,2013-07-24 21:37:00,
2013-07-24 16:42:00,76.8,59.4,29.98,North,360,1.0,5.0,55,0.00,,SKC,0.00,VWS V14.01,2013-07-24 21:42:00,
2013-07-24 16:47:00,76.2,57.3,29.98,ENE,67,2.0,5.0,52,0.00,,SKC,0.00,VWS V14.01,2013-07-24 21:47:00,
2013-07-24 16:53:00,76.0,56.6,29.98,ENE,65,1.0,5.0,51,0.00,,SKC,0.00,VWS V14.01,2013-07-24 21:53:00,
2013-07-24 16:58:00,76.0,56.0,29.98,East,79,1.0,5.0,50,0.00,,SKC,0.00,VWS V14.01,2013-07-24 21:58:00,
2013-07-24 17:03:00,76.7,57.2,29.98,NE,39,0.0,0.0,51,0.00,,SKC,0.00,VWS V14.01,2013-07-24 22:03:00,
2013-07-24 17:08:00,76.8,57.9,29.98,SSE,150,2.0,2.0,52,0.00,,SKC,0.00,VWS V14.01,2013-07-24 22:08:00,
2013-07-24 17:13:00,76.8,56.2,29.98,SSE,167,0.0,2.0,49,0.00,,SKC,0.00,VWS V14.01,2013-07-24 22:13:00,
2013-07-24 17:18:00,76.4,56.4,29.98,ESE,121,0.0,2.0,50,0.00,,SKC,0.00,VWS V14.01,2013-07-24 22:18:00,
2013-07-24 17:23:00,75.6,57.3,29.98,East,101,0.0,2.0,53,0.00,,SKC,0.00,VWS V14.01,2013-07-24 22:23:00,
2013-07-24 17:28:00,75.2,58.4,29.98,East,98,0.0,2.0,56,0.00,,SKC,0.00,VWS V14.01,2013-07-24 22:28:00,
2013-07-24 17:33:00,75.0,57.8,29.98,East,97,0.0,0.0,55,0.00,,SKC,0.00,VWS V14.01,2013-07-24 22:33:00,
2013-07-24 17:38:00,74.7,57.5,29.98,East,97,0.0,0.0,55,0.00,,SKC,0.00,VWS V14.01,2013-07-24 22:38:00,
2013-07-24 17:43:00,74.3,58.1,29.98,NNW,335,0.0,0.0,57,0.00,,SKC,0.00,VWS V14.01,2013-07-24 22:43:00,
2013-07-24 17:48:00,73.6,58.4,29.98,NW,326,0.0,2.0,59,0.00,,SKC,0.00,VWS V14.01,2013-07-24 22:48:00,
2013-07-24 17:53:00,73.2,58.5,29.98,North,4,0.0,2.0,60,0.00,,SKC,0.00,VWS V14.01,2013-07-24 22:53:00,
2013-07-24 17:58:00,73.2,59.0,29.98,North,4,0.0,2.0,61,0.00,,SKC,0.00,VWS V14.01,2013-07-24 22:58:00,
2013-07-24 18:03:00,73.2,58.5,29.98,NW,326,2.0,2.0,60,0.00,,SKC,0.00,VWS V14.01,2013-07-24 23:03:00,
2013-07-24 18:19:00,72.5,59.0,29.98,NNW,343,0.0,3.0,63,0.00,,,0.00,weatherlink.com 1.10,2013-07-24 23:19:00,
2013-07-24 18:24:00,72.6,59.7,29.98,North,11,0.0,0.0,64,0.00,,SKC,0.00,VWS V14.01,2013-07-24 23:24:00,
2013-07-24 18:29:00,72.6,60.6,29.98,North,10,0.0,0.0,66,0.00,,SKC,0.00,VWS V14.01,2013-07-24 23:29:00,
2013-07-24 18:34:00,73.0,60.5,29.98,NE,50,0.0,0.0,65,0.00,,SKC,0.00,VWS V14.01,2013-07-24 23:34:00,
2013-07-24 18:39:00,73.5,60.2,29.98,NNE,24,0.0,4.0,63,0.00,,SKC,0.00,VWS V14.01,2013-07-24 23:39:00,
2013-07-24 18:44:00,73.4,60.0,29.98,NE,53,0.0,6.0,63,0.00,,SKC,0.00,VWS V14.01,2013-07-24 23:44:00,
2013-07-24 18:49:00,73.3,60.0,29.98,North,5,0.0,6.0,63,0.00,,SKC,0.00,VWS V14.01,2013-07-24 23:49:00,
2013-07-24 18:54:00,73.7,59.9,29.98,NE,46,0.0,6.0,62,0.00,,SKC,0.00,VWS V14.01,2013-07-24 23:54:00,
2013-07-24 18:59:00,74.4,60.1,29.98,NNW,338,0.0,6.0,61,0.00,,SKC,0.00,VWS V14.01,2013-07-24 23:59:00,
2013-07-24 19:04:00,74.6,59.3,29.98,North,353,0.0,0.0,59,0.00,,SKC,0.00,VWS V14.01,2013-07-25 00:04:00,
2013-07-24 19:09:00,74.2,59.9,29.98,North,358,0.0,1.0,61,0.00,,SKC,0.00,VWS V14.01,2013-07-25 00:09:00,
2013-07-24 19:14:00,73.6,59.3,29.98,North,6,0.0,1.0,61,0.00,,SKC,0.00,VWS V14.01,2013-07-25 00:14:00,
2013-07-24 19:19:00,73.1,59.3,29.98,North,6,0.0,1.0,62,0.00,,SKC,0.00,VWS V14.01,2013-07-25 00:19:00,
2013-07-24 19:21:00,73.1,59.3,29.98,North,6,0.0,1.0,62,0.00,,SKC,0.00,VWS V14.01,2013-07-25 00:21:00,
2013-07-24 19:26:00,73.2,60.0,29.98,NNE,15,0.0,1.0,63,0.00,,,0.00,weatherlink.com 1.10,2013-07-25 00:26:00,
2013-07-24 19:41:00,73.5,61.0,29.97,NNE,15,0.0,0.0,64,0.00,,,0.00,weatherlink.com 1.10,2013-07-25 00:41:00,
2013-07-24 19:56:00,72.8,61.0,29.97,NNE,15,0.0,0.0,67,0.00,,,0.00,weatherlink.com 1.10,2013-07-25 00:56:00,
2013-07-24 20:11:00,70.4,62.0,29.97,NNE,15,0.0,0.0,75,0.00,,,0.00,weatherlink.com 1.10,2013-07-25 01:11:00,
2013-07-24 20:26:00,68.3,61.0,29.98,NNE,15,0.0,0.0,78,0.00,,,0.00,weatherlink.com 1.10,2013-07-25 01:26:00,
2013-07-24 20:41:00,66.8,62.0,29.98,NNE,14,0.0,0.0,83,0.00,,,0.00,weatherlink.com 1.10,2013-07-25 01:41:00,
2013-07-24 20:56:00,65.3,61.0,29.98,NNE,15,0.0,0.0,86,0.00,,,0.00,weatherlink.com 1.10,2013-07-25 01:56:00,
2013-07-24 21:11:00,63.8,61.0,29.98,NNE,15,0.0,0.0,90,0.00,,,0.00,weatherlink.com 1.10,2013-07-25 02:11:00,
2013-07-24 21:26:00,62.5,60.0,29.98,NNE,18,0.0,0.0,92,0.00,,,0.00,weatherlink.com 1.10,2013-07-25 02:26:00,
2013-07-24 21:41:00,61.6,60.0,29.99,NNE,17,0.0,0.0,95,0.00,,,0.00,weatherlink.com 1.10,2013-07-25 02:41:00,
2013-07-24 21:56:00,61.6,61.0,30.00,ENE,75,0.0,1.0,96,0.00,,,0.00,weatherlink.com 1.10,2013-07-25 02:56:00,
2013-07-24 22:11:00,61.0,59.0,29.99,ENE,75,0.0,0.0,94,0.00,,,0.00,weatherlink.com 1.10,2013-07-25 03:11:00,
2013-07-24 22:41:00,59.7,58.0,30.00,ENE,75,0.0,0.0,95,0.00,,,0.00,weatherlink.com 1.10,2013-07-25 03:41:00,
2013-07-24 22:56:00,59.2,58.0,30.00,ENE,75,0.0,0.0,96,0.00,,,0.00,weatherlink.com 1.10,2013-07-25 03:56:00,
2013-07-24 23:11:00,59.2,59.0,30.01,East,88,0.0,1.0,98,0.00,,,0.00,weatherlink.com 1.10,2013-07-25 04:11:00,
2013-07-24 23:26:00,59.2,58.0,30.00,East,88,0.0,0.0,97,0.00,,,0.00,weatherlink.com 1.10,2013-07-25 04:26:00,
2013-07-24 23:41:00,58.3,57.0,30.00,East,87,0.0,0.0,96,0.00,,,0.00,weatherlink.com 1.10,2013-07-25 04:41:00,
2013-07-24 23:56:00,58.0,57.0,30.00,East,88,0.0,0.0,97,0.00,,,0.00,weatherlink.com 1.10,2013-07-25 04:56:00,